Weather History for KHSV - May, 2013

Change the Weather History Date:

Sunday, May 26, 2013

  Actual Average Record
Temperature  
Mean Temperature 70 °F 73 °F  
Max Temperature 87 °F 84 °F 97 °F (1926)
Min Temperature 53 °F 62 °F 44 °F (1979)
Degree Days  
Heating Degree Days 0 0  
Month to date heating degree days 71 25  
Since 1 July heating degree days 3042 2999  
Cooling Degree Days 5 8  
Month to date cooling degree days 108 146  
Year to date cooling degree days 167 218  
Growing Degree Days 20 (Base 50)    
Moisture  
Dew Point 54 °F    
Average Humidity 63    
Maximum Humidity 93    
Minimum Humidity 32    
Precipitation  
Precipitation 0.00 in 0.15 in 2.00 in (1994)
Month to date precipitation 6.60 4.35  
Year to date precipitation 29.12 23.61  
Snow  
Snow 0.00 in - - ()
Month to date snowfall 0.0  
Since 1 July snowfall 0.7  
Snow Depth 0.00 in    
Sea Level Pressure  
Sea Level Pressure 30.20 in    
Wind  
Wind Speed 3 mph (SSE)    
Max Wind Speed 17 mph    
Max Gust Speed 44 mph    
Visibility 10 miles    
Events      
T = Trace of Precipitation, MM = Missing Value Source: NWS Daily Summary

Daily Weather History Graph

Daily Weather History Graph

Search for Another Location

Airport or City:

Trip Planner

Search our weather history database for the weather conditions in past years. The results will help you decide how hot, cold, wet, or windy it might be!

Date:

Astronomy

May. 26, 2013 Rise Set
Actual Time 5:37 AM CDT 7:51 PM CDT
Civil Twilight 5:08 AM CDT 8:20 PM CDT
Nautical Twilight 4:33 AM CDT 8:55 PM CDT
Astronomical Twilight 3:55 AM CDT 9:33 PM CDT
Moon 9:39 PM CDT (5/26) 7:05 AM CDT (5/26)
Length of Visible Light 15h 11m
Length of Day
14h 13m
Waning Gibbous, 96% of the Moon is Illuminated
May 26
Waning Gibbous
May 31
Last Quarter
Jun 8
New
Jun 16
First Quarter
Jun 23
Full

Hourly Weather History & Observations

Time (CDT) Temp. Heat Index Dew Point Humidity Pressure Visibility Wind Dir Wind Speed Gust Speed Precip Events Conditions
12:53 AM 60.1 °F - 53.1 °F 78% 30.20 in 10.0 mi Calm Calm - N/A   Clear
1:53 AM 57.0 °F - 53.1 °F 87% 30.18 in 10.0 mi Calm Calm - N/A   Clear
2:53 AM 57.0 °F - 52.0 °F 83% 30.19 in 10.0 mi Calm Calm - N/A   Clear
3:53 AM 57.9 °F - 51.1 °F 78% 30.20 in 10.0 mi Calm Calm - N/A   Clear
4:53 AM 55.9 °F - 52.0 °F 87% 30.22 in 10.0 mi Calm Calm - N/A   Clear
5:40 AM 55.4 °F - 51.8 °F 88% 30.25 in 10.0 mi Calm Calm - N/A   Scattered Clouds
5:53 AM 55.0 °F - 53.1 °F 93% 30.24 in 10.0 mi Calm Calm - N/A   Scattered Clouds
6:53 AM 57.9 °F - 54.0 °F 87% 30.25 in 10.0 mi East 3.5 mph - N/A   Partly Cloudy
7:53 AM 63.0 °F - 54.0 °F 72% 30.25 in 10.0 mi East 4.6 mph - N/A   Partly Cloudy
8:53 AM 69.1 °F - 54.0 °F 58% 30.25 in 10.0 mi ESE 5.8 mph - N/A   Partly Cloudy
9:53 AM 75.0 °F - 55.0 °F 50% 30.24 in 10.0 mi East 4.6 mph - N/A   Partly Cloudy
10:53 AM 79.0 °F - 54.0 °F 42% 30.25 in 10.0 mi Variable 4.6 mph - N/A   Partly Cloudy
11:53 AM 81.0 °F 80.4 °F 53.1 °F 38% 30.23 in 10.0 mi South 8.1 mph - N/A   Partly Cloudy
12:53 PM 82.0 °F - 52.0 °F 35% 30.22 in 10.0 mi Calm Calm - N/A   Partly Cloudy
1:53 PM 82.9 °F - 52.0 °F 34% 30.20 in 10.0 mi SW 4.6 mph - N/A   Partly Cloudy
2:53 PM 84.9 °F 83.2 °F 53.1 °F 33% 30.18 in 10.0 mi WNW 5.8 mph - N/A   Scattered Clouds
3:53 PM 84.9 °F - 52.0 °F 32% 30.17 in 10.0 mi Calm Calm - N/A   Partly Cloudy
4:53 PM 84.9 °F 83.2 °F 53.1 °F 33% 30.15 in 10.0 mi SSE 6.9 mph - N/A   Partly Cloudy
5:53 PM 84.9 °F - 52.0 °F 32% 30.14 in 10.0 mi SW 3.5 mph - N/A   Partly Cloudy
6:53 PM 82.9 °F - 52.0 °F 34% 30.14 in 10.0 mi South 3.5 mph - N/A   Partly Cloudy
7:53 PM 78.1 °F - 57.0 °F 48% 30.14 in 10.0 mi South 4.6 mph - N/A   Partly Cloudy
8:53 PM 73.9 °F - 57.9 °F 57% 30.14 in 10.0 mi South 4.6 mph - N/A   Partly Cloudy
9:53 PM 71.1 °F - 59.0 °F 66% 30.15 in 10.0 mi SSE 3.5 mph - N/A   Clear
10:53 PM 68.0 °F - 57.9 °F 70% 30.15 in 10.0 mi ESE 3.5 mph - N/A   Clear
11:53 PM 66.0 °F - 57.9 °F 75% 30.14 in 10.0 mi ESE 5.8 mph - N/A   Clear